This is the latest recevied weather packets stored in our database for station/object IZ2MHJ-3. If no packets are shown the sender has not sent any weather packets the latest 10 day(s).
| Time | Temp. | Humidity | Pressure | Rain* | Wind** | Luminosity | Snow |
|---|---|---|---|---|---|---|---|
| 1788505179 | 30° C | 46% | 1020.5 hPa | - | - | - | - |
| 1788503978 | 29.44° C | 49% | 1020.6 hPa | - | - | - | - |
| 1788502778 | 27.22° C | 54% | 1020.7 hPa | - | - | - | - |
| 1788501578 | 26.11° C | 57% | 1020.8 hPa | - | - | - | - |
| 1788500377 | 23.89° C | 63% | 1020.9 hPa | - | - | - | - |
| 1788499177 | 22.78° C | 68% | 1021 hPa | - | - | - | - |
| 1788497977 | 21.11° C | 73% | 1021 hPa | - | - | - | - |
| 1788496777 | 21.67° C | 73% | 1020.8 hPa | - | - | - | - |
| 1788495576 | 21.67° C | 72% | 1020.9 hPa | - | - | - | - |
| 1788494376 | 22.22° C | 71% | 1020.7 hPa | - | - | - | - |
| 1788493176 | 22.22° C | 71% | 1020.8 hPa | - | - | - | - |
| 1788491975 | 22.22° C | 70% | 1020.7 hPa | - | - | - | - |
| 1788490775 | 22.22° C | 72% | 1020.5 hPa | - | - | - | - |
| 1788489575 | 22.22° C | 72% | 1020.6 hPa | - | - | - | - |
| 1788488374 | 21.67° C | 73% | 1020.5 hPa | - | - | - | - |
| 1788487174 | 23.33° C | 69% | 1020.3 hPa | - | - | - | - |
| 1788485974 | 23.33° C | 68% | 1020.1 hPa | - | - | - | - |
| 1788484773 | 23.33° C | 67% | 1020.1 hPa | - | - | - | - |
| 1788483573 | 23.89° C | 67% | 1020.2 hPa | - | - | - | - |
| 1788482373 | 23.89° C | 67% | 1020.2 hPa | - | - | - | - |
| 1788481172 | 24.44° C | 66% | 1020.1 hPa | - | - | - | - |
| 1788479972 | 23.89° C | 65% | 1020.3 hPa | - | - | - | - |
| 1788478772 | 24.44° C | 64% | 1020.4 hPa | - | - | - | - |
| 1788477572 | 25° C | 63% | 1020.3 hPa | - | - | - | - |
| 1788476371 | 24.44° C | 64% | 1020.3 hPa | - | - | - | - |
* Rain since midnight (hover to see other rain measurements)
** Current wind speed in m/s (hover to see current wind gust speed)